Friday Harbor, WA
on Sunday, January 6, 2013

Sunday
Previous Day Next Day
Daily Summary
 ActualAverageRecord
Temperature
Mean Temperature °F °F  
Max Temperature 44°F 43°F 53°F (2003)
Min Temperature 39°F 35°F 24°F (2004)
Degree Days
Heating Degree Days 24    
Moisture
Dew Point 39°F   
Average Humidity 89    
Maximum Humidity 97    
Minimum Humidity 81    
Precipitation
Precipitation 0.01 in in in ()
Wind
Wind Speed 8 mph   
Max Wind Speed 21 mph   
Max Gust Speed 32 mph   
Visibility 10 miles   
Events Rain   
Averages and records for this station are not official NWS values.
Key: T is trace of precipitation, MM is missing value
Source: NWS Daily Summary
Seasonal Weather Averages
Time(PST)TemperatureDew PointHumidity Pressure Visibility Wind DirectionWind SpeedGust SpeedPrecipitationEvents Conditions
12:53 AM 39.0°F 36.0°F 89% 30.12 in 10.0 miles South 4.6 mph - N/A   Scattered Clouds
1:53 AM 39.0°F 36.0°F 89% 30.13 in 10.0 miles South 4.6 mph - N/A   Clear
2:28 AM 41.0°F 39.2°F 93% 30.14 in 10.0 miles South 5.8 mph - N/A   Overcast
2:53 AM 42.1°F 39.9°F 92% 30.13 in 10.0 miles South 8.1 mph - N/A   Mostly Cloudy
3:14 AM 42.8°F 39.2°F 87% 30.13 in 10.0 miles South 5.8 mph - N/A   Partly Cloudy
3:53 AM 43.0°F 41.0°F 93% 30.13 in 10.0 miles SSE 10.4 mph - N/A   Mostly Cloudy
4:33 AM 41.0°F 39.2°F 93% 30.13 in 10.0 miles SSE 8.1 mph - N/A   Mostly Cloudy
4:53 AM 42.1°F 39.9°F 92% 30.13 in 10.0 miles SSE 10.4 mph - N/A   Mostly Cloudy
5:40 AM 42.8°F 39.2°F 87% 30.12 in 10.0 miles SE 11.5 mph - N/A   Mostly Cloudy
5:53 AM 42.1°F 39.0°F 89% 30.13 in 10.0 miles SSE 8.1 mph - N/A   Overcast
6:43 AM 42.8°F 37.4°F 81% 30.12 in 10.0 miles SE 10.4 mph - N/A   Overcast
6:53 AM 42.1°F 39.0°F 89% 30.13 in 10.0 miles ESE 8.1 mph - N/A   Overcast
7:03 AM 42.8°F 37.4°F 81% 30.13 in 10.0 miles ESE 9.2 mph - N/A   Overcast
7:53 AM 42.1°F 37.9°F 85% 30.14 in 10.0 miles SE 8.1 mph - N/A   Overcast
8:53 AM 42.1°F 39.0°F 89% 30.14 in 10.0 miles ESE 8.1 mph - N/A   Overcast
9:53 AM 42.1°F 39.0°F 89% 30.14 in 10.0 miles SE 9.2 mph - N/A   Overcast
10:53 AM 43.0°F 39.0°F 86% 30.14 in 10.0 miles SE 12.7 mph - N/A   Overcast
11:53 AM 43.0°F 39.0°F 86% 30.12 in 10.0 miles SE 6.9 mph - N/A   Overcast
12:33 PM 42.8°F 39.2°F 87% 30.10 in 10.0 miles SE 6.9 mph - N/A   Overcast
12:53 PM 43.0°F 37.9°F 82% 30.10 in 10.0 miles SE 8.1 mph - N/A   Overcast
1:53 PM 44.1°F 39.0°F 82% 30.09 in 10.0 miles ESE 8.1 mph - N/A   Overcast
2:53 PM 44.1°F 39.0°F 82% 30.08 in 10.0 miles SSE 6.9 mph - N/A   Overcast
3:53 PM 43.0°F 39.9°F 89% 30.07 in 8.0 miles SE 3.5 mph - 0.00 in Rain Light Rain
4:44 PM 42.8°F 39.2°F 87% 30.05 in 10.0 miles East 5.8 mph - 0.00 in   Overcast
4:51 PM 42.8°F 41.0°F 93% 30.05 in 10.0 miles East 6.9 mph - 0.00 in   Overcast
4:53 PM 43.0°F 41.0°F 93% 30.05 in 10.0 miles East 8.1 mph - 0.00 in   Overcast
5:20 PM 42.8°F 41.0°F 93% 30.04 in 10.0 miles East 8.1 mph - 0.00 in Rain Light Rain
5:41 PM 42.8°F 41.0°F 93% 30.03 in 10.0 miles East 8.1 mph - 0.00 in Rain Light Rain
5:53 PM 43.0°F 39.9°F 89% 30.04 in 10.0 miles East 8.1 mph - 0.00 in Rain Light Rain
6:53 PM 43.0°F 41.0°F 93% 30.02 in 10.0 miles ENE 5.8 mph - 0.00 in Rain Light Rain
7:53 PM 43.0°F 41.0°F 93% 30.01 in 10.0 miles ESE 12.7 mph 19.6 mph 0.00 in Rain Light Rain
8:53 PM 43.0°F 42.1°F 97% 29.99 in 9.0 miles SE 12.7 mph 21.9 mph 0.00 in Rain Light Rain
9:53 PM 43.0°F 41.0°F 93% 29.97 in 10.0 miles SE 20.7 mph 26.5 mph 0.01 in Rain Light Rain
10:53 PM 43.0°F 39.9°F 89% 29.95 in 10.0 miles SE 20.7 mph 32.2 mph 0.00 in Rain Light Rain
11:53 PM 42.1°F 41.0°F 96% 29.94 in 10.0 miles ESE 15.0 mph 21.9 mph 0.00 in Rain Light Rain
Moon Phase
Jan. 06 Jan. 11 Jan. 18 Jan. 26 Feb. 03
Sunrise:08:03 AM (PST) Moon Rise:02:13 AM (PST)1/6
Sunset:04:33 PM (PST) Moon Set:12:13 PM (PST)1/6

Copyright © 2014 The Weather Underground, Inc.